Location: Fort Worth, Tx
(32.7431°N, 97.3695°W)
Time: 10:04:52
(UTC-04:00)

Explorer 11/Cluster Stage 4 - Pass Details

Date: 01 March 2024
Orbit: 465 x 1219 km, 28.8° (Epoch: 24 April)

Event Time Altitude Azimuth Distance (km) Brightness Sun altitude
Exits shadow 05:18:28 24° 159° (SSE) 2,024 8.6 -33.9°
Drops below altitude 10° 05:21:24 10° 140° (SE) 2,766 9.6 -33.3°
Sets 05:24:05 0° 132° (SE) 3,599 10.4 -32.7°
